[[{"header":{"parameterUnit":"m.s-1","parameterCategory":1,"la1":30.2991,"la2":30.254,"lo1":-89.0895,"lo2":-89.0444,"dx":0.0017,"dy":0.0017,"nx":28,"ny":28,"refTime":"2022-11-30T15:00:00:Z","depth":0,"parameterNumber":2,"parameterNumberName":"U-component_of_WINDS"},"data":[0,0,0,0,0,0,0,0,0,0,0,0,0,0,0,0,0,0,0,0,0,0,0,0,0,0,0,0,0,0,0,0,0,0,0,0,0,0,0,0,0,0,0,0,0,0,0,0,0,0,0,0,0,0,0,0,0,0,-3.1996,-3.1997,0,-3.2077,-3.2078,-3.2079,-3.1988,-3.1984,-3.1981,-3.1978,-3.2062,-3.2067,-3.2073,0,0,0,0,0,0,0,0,0,0,0,0,0,-3.1765,-3.1769,-3.1996,-3.1997,-3.1998,-3.2077,-3.2078,-3.2079,-3.1988,-3.1984,-3.198,-3.1976,-3.206,-3.2067,-3.2073,0,0,0,0,0,0,0,0,0,0,0,0,0,-3.1857,-3.1771,-3.1996,-3.1963,-3.196,-3.2077,-3.2078,-3.2079,-3.1989,-3.1984,-3.1979,-3.1974,-3.2058,-3.2066,-3.2074,-3.2228,0,0,-3.2099,-3.2102,0,0,0,0,0,0,0,0,-3.1852,-3.1866,-3.1967,-3.1965,-3.1963,-3.2017,-3.2027,-3.2129,-3.1991,-3.1978,-3.1978,-3.1972,-3.2051,-3.206,-3.2086,-3.2232,-3.2235,-3.21,-3.2105,-3.2108,-3.211,0,0,0,0,0,0,0,-3.1846,-3.1862,-3.2028,-3.1968,-3.1966,-3.1944,-3.1951,-3.2046,-3.2043,-3.1979,-3.1973,-3.1983,-3.2049,-3.2078,-3.2087,-3.2236,-3.2099,-3.2107,-3.2112,-3.2115,-3.2511,-3.2517,0,0,0,0,0,0,-3.1843,-3.1857,-3.2026,-3.2031,-3.1894,-3.1952,-3.196,-3.2005,-3.2042,-3.2042,-3.1988,-3.1979,-3.2067,-3.2078,-3.209,-3.2273,-3.2108,-3.2116,-3.212,-3.2506,-3.2513,-3.2519,0,0,0,0,0,0,-3.1839,-3.1859,-3.2022,-3.1942,-3.1961,-3.1961,-3.2012,-3.2009,-3.2038,-3.2048,-3.2047,-3.2018,-3.2063,-3.2079,-3.2194,-3.2274,-3.2119,-3.2127,-3.2499,-3.2508,-3.2516,-3.264,0,0,0,0,0,0,-3.1832,-3.1858,-3.1917,-3.1944,-3.1966,-3.2126,-3.2017,-3.2014,-3.2052,-3.2042,-3.2076,-3.2077,-3.2061,-3.2182,-3.2202,-3.2283,-3.2133,-3.2492,-3.2503,-3.2513,-3.2628,-3.2651,-3.2671,0,0,0,0,0,-3.1824,-3.1949,-3.192,-3.1941,-3.2039,-3.213,-3.2143,-3.2121,-3.2059,-3.2118,-3.2124,-3.2076,-3.2262,-3.2195,-3.2216,-3.2301,-3.2487,-3.25,-3.2512,-3.2619,-3.2647,-3.267,0,0,0,0,0,0,-3.1932,-3.1952,-3.192,-3.2057,-3.2093,-3.2115,-3.2189,-3.2151,-3.2205,-3.2193,-3.2163,-3.2172,-3.2295,-3.2308,-3.2234,-3.2451,-3.2364,-3.2382,-3.2438,-3.2465,-3.2485,-3.2481,-3.214,0,0,0,0,0,-3.1971,-3.2043,-3.2057,-3.2176,-3.2195,-3.2189,-3.2228,-3.2207,-3.2243,-3.2258,-3.2272,-3.2309,-3.2376,-3.242,-3.2482,-3.2629,-3.2635,-3.2697,-3.2719,-3.2736,-3.2752,-3.2831,-3.2859,-3.256,-3.256,-3.256,0,0,-3.2054,-3.2073,-3.2121,-3.2198,-3.2223,-3.2299,-3.2202,-3.2287,-3.2342,-3.2271,-3.2381,-3.2393,-3.2432,-3.2564,-3.2622,-3.2579,-3.2836,-3.2752,-3.2766,-3.2773,-3.2847,-3.2875,-3.2901,-3.2569,-3.2567,-3.2566,0,0,-3.2243,-3.2265,-3.2367,-3.2394,-3.2432,-3.2427,-3.2451,-3.2479,-3.2484,-3.2593,-3.2541,-3.2607,-3.2722,-3.2752,-3.2782,-3.2981,-3.2939,-3.3002,-3.3114,-3.3191,-3.3214,-3.3235,-3.3307,-3.3333,-3.3017,-3.3018,-3.3018,0,-3.2342,-3.2453,-3.2424,-3.2512,-3.2548,-3.2485,-3.2588,-3.2615,-3.2673,-3.2699,-3.2649,-3.2792,-3.2814,-3.2952,-3.3,-3.3026,-3.3054,-3.2999,-3.3213,-3.3234,-3.3253,-3.3321,-3.3348,-3.3025,-3.3024,-3.3024,-3.3023,0,-3.2572,-3.265,-3.2728,-3.2784,-3.2828,-3.2923,-3.2909,-3.2957,-3.2932,-3.2932,-3.3044,-3.3067,-3.3133,-3.3163,-3.314,-3.3298,-3.327,-3.3217,-3.313,-3.3289,-3.3353,-3.3379,-3.3036,-3.3033,-3.3031,-3.3029,0,0,-3.2835,-3.2872,-3.2901,-3.2926,-3.2963,-3.3023,-3.3114,-3.3178,-3.322,-3.326,-3.3337,-3.3435,-3.3386,-3.342,-3.3399,-3.3467,-3.3624,-3.3405,-3.3406,-3.3447,-3.38,-3.3841,-3.3872,-3.3595,-3.36,-3.3603,-3.3797,0,-3.3026,-3.3185,-3.3161,-3.3315,-3.3387,-3.3327,-3.3407,-3.3438,-3.344,-3.3501,-3.3502,-3.3573,-3.3502,-3.3522,-3.3586,-3.3591,-3.3695,-3.3577,-3.3667,-3.3671,-3.3662,-3.3905,-3.395,-3.4132,-3.3822,-3.3826,-3.3829,0,-3.3271,-3.332,-3.3482,-3.3506,-3.3536,-3.3608,-3.3664,-3.3722,-3.3756,-3.3753,-3.379,-3.3757,-3.3848,-3.3757,-3.3883,-3.3804,-3.3838,-3.3846,-3.3853,-3.3862,-3.3762,-3.3923,-3.4189,-3.4217,-3.3868,-3.3865,-3.3862,0,-3.3449,-3.3555,-3.3665,-3.3687,-3.3719,-3.3771,-3.3787,-3.3815,-3.3854,-3.3902,-3.3928,-3.3986,-3.4019,-3.4064,-3.4047,-3.3982,-3.4177,-3.4085,-3.4178,-3.4179,-3.4224,-3.4222,-3.4501,-3.4243,-3.4243,-3.4242,-3.4242,0,-3.3666,-3.3768,-3.3745,-3.3813,-3.3924,-3.3895,-3.4006,-3.4014,-3.404,-3.4108,-3.4059,-3.4124,-3.4096,-3.416,-3.4147,-3.4254,-3.4268,-3.4268,-3.4264,-3.4274,-3.4275,-3.4299,-3.4287,-3.4249,-3.4248,-3.4246,-3.4245,0,-3.3885,-3.3873,-3.3989,-3.4009,-3.4016,-3.4097,-3.4114,-3.4178,-3.4174,-3.4261,-3.428,-3.4275,-3.4347,-3.4334,-3.4414,-3.4404,-3.4539,-3.4518,-3.4528,-3.4524,-3.4618,-3.461,-3.4925,-3.4965,-3.4679,-3.4682,-3.4684,0,-3.4026,-3.4102,-3.4129,-3.4171,-3.4191,-3.4259,-3.4298,-3.4271,-3.4314,-3.4358,-3.4417,-3.4484,-3.4536,-3.4654,-3.4658,-3.4718,-3.47,-3.4805,-3.4709,-3.4716,-3.4703,-3.47,-3.4708,-3.4826,-3.4829,-3.4832,-3.4834,0,-3.4278,-3.4268,-3.4326,-3.4383,-3.4431,-3.4474,-3.4513,-3.455,-3.4526,-3.4577,-3.4649,-3.469,-3.477,-3.4838,-3.4894,-3.491,-3.4869,-3.4864,-3.4889,-3.4901,-3.4904,-3.4905,-3.4583,-3.4857,-3.4855,-3.4853,-3.4852,-3.4851,-3.4463,-3.4528,-3.4557,-3.4624,-3.4649,-3.4686,-3.4747,-3.475,-3.481,-3.4873,-3.4853,-3.4936,-3.4967,-3.5037,-3.5059,-3.5123,-3.5084,-3.512,-3.513,-3.514,-3.5152,-3.4892,-3.5133,-3.5133,-3.5132,-3.5131,-3.5131,0,-3.4714,-3.4729,-3.479,-3.4845,-3.4897,-3.4852,-3.4891,-3.4939,-3.5012,-3.5043,-3.5096,-3.5179,-3.5244,-3.5252,-3.5313,-3.5363,-3.5346,-3.538,-3.5377,-3.5382,-3.5183,-3.5156,-3.5393,-3.5393,-3.5393,-3.5393,-3.5393,-3.5393,-3.4851,-3.4958,-3.4952,-3.5071,-3.5085,-3.5166,-3.5193,-3.5226,-3.5251,-3.5346,-3.5399,-3.5403,-3.5426,-3.5488,-3.5545,-3.5545,-3.5571,-3.5614,-3.5607,-3.5422,-3.5396,-3.5371,-3.5346,-3.5619,-3.5619,-3.5801,-3.5803,-3.5804]},{"header":{"parameterUnit":"m.s-1","parameterCategory":1,"la1":30.2991,"la2":30.254,"lo1":-89.0895,"lo2":-89.0444,"dx":0.0017,"dy":0.0017,"nx":28,"ny":28,"refTime":"2022-11-30T15:00:00:Z","depth":0,"parameterNumber":3,"parameterNumberName":"V-component_of_WINDS"},"data":[0,0,0,0,0,0,0,0,0,0,0,0,0,0,0,0,0,0,0,0,0,0,0,0,0,0,0,0,0,0,0,0,0,0,0,0,0,0,0,0,0,0,0,0,0,0,0,0,0,0,0,0,0,0,0,0,0,0,-7.1554,-7.1555,0,-7.1665,-7.1666,-7.1667,-7.1576,-7.1572,-7.1569,-7.1565,-7.1674,-7.168,-7.1686,0,0,0,0,0,0,0,0,0,0,0,0,0,-7.1255,-7.1261,-7.1553,-7.1555,-7.1556,-7.1665,-7.1666,-7.1668,-7.1577,-7.1572,-7.1568,-7.1563,-7.1671,-7.1679,-7.1687,0,0,0,0,0,0,0,0,0,0,0,0,0,-7.1378,-7.1263,-7.1553,-7.1524,-7.1523,-7.1664,-7.1666,-7.1668,-7.1578,-7.1572,-7.1566,-7.1561,-7.1669,-7.1678,-7.1688,-7.1862,0,0,-7.1717,-7.1722,0,0,0,0,0,0,0,0,-7.1371,-7.1389,-7.1527,-7.1526,-7.1525,-7.1601,-7.1601,-7.1733,-7.1579,-7.1557,-7.1565,-7.1558,-7.1654,-7.1664,-7.1697,-7.1867,-7.1872,-7.1718,-7.1724,-7.1728,-7.1731,0,0,0,0,0,0,0,-7.1362,-7.1383,-7.1597,-7.1529,-7.1528,-7.1503,-7.1514,-7.1625,-7.1636,-7.1558,-7.1552,-7.1567,-7.1652,-7.1688,-7.1699,-7.1874,-7.1718,-7.1727,-7.1733,-7.1736,-7.2189,-7.2195,0,0,0,0,0,0,-7.1358,-7.1377,-7.1594,-7.1601,-7.1432,-7.1513,-7.1526,-7.1582,-7.1634,-7.1637,-7.1571,-7.1562,-7.1675,-7.1688,-7.1703,-7.1909,-7.1728,-7.1737,-7.1743,-7.2183,-7.219,-7.2197,0,0,0,0,0,0,-7.1352,-7.1378,-7.1589,-7.1487,-7.1512,-7.1525,-7.1589,-7.1587,-7.1624,-7.1644,-7.1645,-7.1607,-7.1671,-7.1689,-7.1823,-7.1912,-7.1742,-7.175,-7.2176,-7.2185,-7.2194,-7.2324,0,0,0,0,0,0,-7.1344,-7.1376,-7.1445,-7.1489,-7.1518,-7.171,-7.1594,-7.1594,-7.1641,-7.163,-7.1678,-7.1681,-7.1668,-7.1809,-7.1833,-7.1922,-7.1758,-7.2168,-7.218,-7.2191,-7.2312,-7.2337,-7.2358,0,0,0,0,0,-7.1333,-7.1476,-7.1449,-7.1475,-7.1604,-7.1716,-7.1732,-7.1715,-7.1649,-7.1716,-7.1729,-7.1679,-7.1898,-7.1824,-7.1849,-7.1943,-7.2162,-7.2176,-7.219,-7.2302,-7.2332,-7.2358,0,0,0,0,0,0,-7.144,-7.1482,-7.1451,-7.1614,-7.1662,-7.17,-7.1785,-7.1748,-7.1815,-7.1802,-7.1776,-7.1788,-7.1929,-7.1949,-7.1865,-7.2113,-7.2019,-7.2039,-7.2095,-7.2124,-7.2147,-7.2139,-7.1766,0,0,0,0,0,-7.1483,-7.1572,-7.1603,-7.1743,-7.1769,-7.1773,-7.1821,-7.1804,-7.1852,-7.1872,-7.1894,-7.1942,-7.202,-7.2073,-7.2147,-7.2314,-7.2322,-7.2391,-7.2414,-7.2432,-7.245,-7.2537,-7.2568,-7.2243,-7.2243,-7.2243,0,0,-7.1572,-7.1605,-7.1663,-7.1765,-7.18,-7.1891,-7.1791,-7.1891,-7.1958,-7.1886,-7.2015,-7.2033,-7.2083,-7.2234,-7.2301,-7.2255,-7.2541,-7.245,-7.2465,-7.2472,-7.2555,-7.2586,-7.2613,-7.2253,-7.2251,-7.2249,0,0,-7.178,-7.1815,-7.1935,-7.1973,-7.2028,-7.2029,-7.2058,-7.2102,-7.2111,-7.224,-7.2188,-7.2265,-7.2402,-7.244,-7.2477,-7.2697,-7.2653,-7.2722,-7.2842,-7.2928,-7.2954,-7.2976,-7.3053,-7.3082,-7.2739,-7.2739,-7.274,0,-7.1883,-7.202,-7.2001,-7.2106,-7.2151,-7.2091,-7.2211,-7.2248,-7.2324,-7.2355,-7.2302,-7.2472,-7.2502,-7.266,-7.2714,-7.2746,-7.2776,-7.2717,-7.2952,-7.2974,-7.2995,-7.3068,-7.3098,-7.2747,-7.2747,-7.2746,-7.2745,0,-7.2143,-7.2238,-7.2328,-7.2405,-7.246,-7.2571,-7.2567,-7.2624,-7.2602,-7.2609,-7.2738,-7.2772,-7.2851,-7.2887,-7.2866,-7.3042,-7.3011,-7.2956,-7.2861,-7.3034,-7.3103,-7.3131,-7.2759,-7.2756,-7.2754,-7.2752,0,0,-7.2423,-7.2487,-7.252,-7.2553,-7.2609,-7.2681,-7.2788,-7.2867,-7.2916,-7.297,-7.3058,-7.3175,-7.3123,-7.3166,-7.3148,-7.3223,-7.3394,-7.3158,-7.3158,-7.32,-7.3587,-7.3628,-7.3662,-7.3364,-7.337,-7.3374,-7.3582,0,-7.2633,-7.2823,-7.2808,-7.2986,-7.3072,-7.3016,-7.3109,-7.3152,-7.316,-7.3233,-7.324,-7.3324,-7.325,-7.3275,-7.3347,-7.3358,-7.3471,-7.3342,-7.3444,-7.3448,-7.3434,-7.3698,-7.3742,-7.3938,-7.3609,-7.3614,-7.3617,0,-7.2904,-7.2969,-7.3156,-7.3197,-7.3233,-7.3317,-7.3387,-7.3458,-7.3504,-7.3504,-7.3551,-7.352,-7.3625,-7.3528,-7.3671,-7.3584,-7.3625,-7.3636,-7.3643,-7.3652,-7.3543,-7.3713,-7.4,-7.4029,-7.3659,-7.3656,-7.3653,0,-7.3089,-7.3222,-7.3351,-7.3381,-7.3432,-7.3493,-7.3516,-7.3557,-7.3605,-7.3665,-7.3695,-7.3766,-7.3805,-7.3859,-7.3847,-7.3778,-7.3993,-7.3895,-7.3995,-7.3995,-7.4043,-7.404,-7.434,-7.407,-7.4069,-7.4069,-7.4068,0,-7.3325,-7.3442,-7.3434,-7.3514,-7.3642,-7.3622,-7.3748,-7.3764,-7.38,-7.388,-7.3834,-7.3909,-7.3889,-7.3962,-7.3953,-7.4072,-7.409,-7.4092,-7.4088,-7.4096,-7.4096,-7.4122,-7.4108,-7.4076,-7.4075,-7.4073,-7.4072,0,-7.3553,-7.3554,-7.369,-7.3727,-7.3739,-7.3832,-7.3862,-7.3936,-7.3939,-7.404,-7.4063,-7.4068,-7.4152,-7.4145,-7.4239,-7.4232,-7.438,-7.436,-7.4365,-7.4361,-7.4461,-7.4451,-7.4788,-7.483,-7.4533,-7.4536,-7.4538,0,-7.3704,-7.3793,-7.3839,-7.389,-7.3919,-7.4001,-7.4049,-7.4032,-7.4084,-7.4142,-7.4208,-7.4288,-7.4351,-7.4487,-7.4498,-7.4569,-7.455,-7.4663,-7.456,-7.4565,-7.455,-7.4545,-7.4553,-7.4683,-7.4686,-7.4689,-7.4691,0,-7.3972,-7.3967,-7.404,-7.4113,-7.4172,-7.4228,-7.4279,-7.4322,-7.4309,-7.4369,-7.4455,-7.4504,-7.46,-7.468,-7.4747,-7.4768,-7.4727,-7.4723,-7.475,-7.4759,-7.4759,-7.4759,-7.442,-7.4716,-7.4713,-7.4712,-7.471,-7.4709,-7.4165,-7.4241,-7.4285,-7.4367,-7.4404,-7.4452,-7.4522,-7.4535,-7.4607,-7.4685,-7.4669,-7.4766,-7.4806,-7.4893,-7.4921,-7.4994,-7.4953,-7.4992,-7.5001,-7.5011,-7.5022,-7.4747,-7.5006,-7.5005,-7.5004,-7.5004,-7.5003,0,-7.443,-7.4455,-7.4531,-7.4604,-7.4668,-7.4625,-7.4678,-7.4734,-7.482,-7.4862,-7.4925,-7.5023,-7.5099,-7.5116,-7.5188,-7.5243,-7.5226,-7.5262,-7.5258,-7.5263,-7.5055,-7.5025,-7.5275,-7.5275,-7.5275,-7.5275,-7.5275,-7.5275,-7.4575,-7.47,-7.47,-7.4842,-7.4865,-7.4961,-7.4995,-7.5038,-7.5072,-7.5183,-7.5247,-7.5257,-7.5289,-7.5362,-7.5429,-7.5432,-7.546,-7.5504,-7.5499,-7.5305,-7.5278,-7.5252,-7.5223,-7.5511,-7.5511,-7.57,-7.5702,-7.5704]}]]